sat.trackr.live / text

‹ back to catalog

STARLINK-31656

NORAD 60286 · 2024-132J

PAYLOAD ACTIVE UNKNOWN

§ Identity

Operator
Country
US
Launch date
2024-07-28
Launch site
AFETR
Launch vehicle
Mass (kg)
RCS (m²)

Purposes: comms

External: N2YO · Heavens-Above · Gunter

§ Orbital elements

Epoch: 2026-09-21T07:21:00.454464Z

Period
93.85 min
Inclination
53.1582°
Eccentricity
0.0001181
Mean motion
15.34382268 rev/d
Perigee alt
461.9 km
Apogee alt
463.6 km
Semi-major
6,840.9 km
B*
-5.7951e-5
RAAN
222.1546°
Arg perigee
83.4435°
Mean anomaly
276.6702°
Rev number
12,153

§ Raw data

STARLINK-316561 60286U 24132J   26264.30625526 -.00002332  00000+0 -57951-4 0  99952 60286  53.1582 222.1546 0001181  83.4435 276.6702 15.34382268121532

JSON: /api/v1/satellites/60286 · /tle

For live sub-satellite position, see the globe view (requires WebGL).

§ Visibility from observer

Set your observer location to see the next 7 days of passes ≥ 10°. The values pass through the URL so the page stays shareable.

No JS? Fill the form by hand. The geolocation button needs JavaScript.